Regional Weather Roundup
Issued by NWS

Home | Current Version | Previous Version | Graphics & Text | Print | Product List | Glossary On
Versions: 1 2 3 4 5 6 7 8 9 10 11 12 13 14 15 16 17 18 19 20 21 22 23 24 25 26 27 28 29 30 31 32 33 34 35 36 37 38 39 40 41 42 43 44 45 46 47 48 49 50
000
ASUS45 KBOU 010607
RWRCO

WEATHER ROUNDUP FOR COLORADO
NATIONAL WEATHER SERVICE DENVER/BOULDER CO
1200 AM MDT WED OCT 01 2014

NOTE: "FAIR" INDICATES FEW OR NO CLOUDS BELOW 12000 FEET WITH NO
SIGNIFICANT WEATHER AND/OR OBSTRUCTIONS TO VISIBILITY.

COZ001>005-013-030-031-010700-
...NORTHWEST COLORADO...

CITY           SKY/WX    TMP DP  RH WIND       PRES   REMARKS
CRAIG          LGT RAIN  44  41  89 SE5       30.00S
HAYDEN         CLOUDY    43  39  87 W6        30.01R
MEEKER         MOCLDY    44  41  89 N5        30.00F
MOUNT WERNER   NOT AVBL
STEAMBOAT SPGS CLOUDY    40  39  96 S3        30.00S
WALDEN         MOCLDY    36  32  87 S9        30.01R
$$

COZ006>008-011-010700-
...WEST CENTRAL VALLEYS...

CITY           SKY/WX    TMP DP  RH WIND       PRES   REMARKS
GRAND JUNCTION MOCLDY    49  44  83 E6        29.93S
MONTROSE       PTCLDY    47  41  80 SE5       29.99F
EAGLE          MOCLDY    45  43  93 S5        30.04F
RIFLE          LGT RAIN  47  42  83 E6        29.98S
DELTA          PTCLDY    49  44  81 NE5       29.96F
NUCLA          PTCLDY    46  41  81 E10       30.01S
$$

COZ017>023-064>068-010700-
...SOUTHWEST COLORADO...

CITY           SKY/WX    TMP DP  RH WIND       PRES   REMARKS
DURANGO        CLEAR     42  37  82 N7        30.02F
CORTEZ         CLEAR     42  39  89 CALM      29.99S
PAGOSA SPRINGS CLEAR     38  37  98 CALM      30.07S
TELLURIDE      CLEAR    N/A N/A N/A SE6       30.12S
WOLF CREEK PAS PTCLDY    28  28 100 SW15G21   30.21F WCI  17
$$

COZ009-010-012-014-032>034-037-058>063-010700-
...CENTRAL COLORADO...

CITY           SKY/WX    TMP DP  RH WIND       PRES   REMARKS
ASPEN          PTCLDY    36  33  89 SW7       30.05S
BUENA VISTA    PTCLDY    39  32  76 CALM      30.04F
COPPER MTN     LGT SNOW  34  30  86 W10G16    30.17S VSB 3/4 WCI  26
BERTHOUD PASS  CLOUDY    25  23  93 NW25      30.14F WCI   9
COTTONWOOD PAS PTCLDY    43  28  56 NW8G20    30.10S
GUNNISON       PTCLDY    37  32  81 N3        30.08S
KREMMLING      CLOUDY    41  36  81 CALM      30.04F
LEADVILLE      PTCLDY    35  28  75 NW7       30.10S WCI  29
MONARCH PASS   FOG       30  30 100 MISG      30.26S VSB<1/4
SALIDA         MOCLDY    46  34  62 CALM      30.09F
SUNLIGHT       CLOUDY    34  34 100 CALM      30.15F
WILKERSON PASS NOT AVBL
$$

COZ069>075-010700-
...SAN LUIS VALLEY/SANGRE DE CRISTO MOUNTAINS...

CITY           SKY/WX    TMP DP  RH WIND       PRES   REMARKS
ALAMOSA        CLEAR     36  32  85 CALM      30.05S
LA VETA PASS   CLEAR     36  30  80 S12G20    30.10S
SAGUACHE       PTCLDY    37  34  87 N7        30.07S
$$

COZ035-036-038>040-010700-
...NORTHERN COLORADO FRONT RANGE...

CITY           SKY/WX    TMP DP  RH WIND       PRES   REMARKS
DENVER INTL AP MOCLDY    54  37  52 W12       29.87F
DMNS CITY PARK   N/A     53  34  48 N5        29.87S
AURORA         PTCLDY    52  35  51 VRB1      29.89F
FRONT RANGE AP PTCLDY    54  41  62 SW7       29.89S
ERIE MUNI ARPT PTCLDY    51  37  56 S7        29.86S
BOULDER MUN AP PTCLDY    54  36  50 SW5       29.86S
CENTENNIAL     PTCLDY    48  38  68 S6        29.90S
BROOMFIELD     PTCLDY    52  34  50 SE6       29.90S
FORT COLLINS   MOCLDY    50  39  66 E8        29.87S
LONGMONT       MOCLDY    51  42  72 NW5       29.88R
$$

COZ041-046-047-076>085-087-088-010700-
...PIKES PEAK/PALMER DIVIDE AND SOUTHERN FOOTHILLS...

CITY           SKY/WX    TMP DP  RH WIND       PRES   REMARKS
COLO. SPRINGS  CLEAR     51  35  54 W7        29.92S
A. F. ACADEMY  CLEAR     55  26  33 VRB7      29.94F
ELLICOTT       NOT AVBL
FALCON         CLEAR     51  28  41 NW10      29.96R
FORT CARSON    CLEAR     53  34  49 SW8       29.90S
LIMON          PTCLDY    48  42  80 CALM      29.88S
MONUMENT HILL  CLEAR     43  32  65 SW6       29.95S
TRINIDAD       CLEAR     50  35  56 W12       29.90S
$$

COZ042>045-048>051-090-091-010700-
...NORTHEAST COLORADO...

CITY           SKY/WX    TMP DP  RH WIND       PRES   REMARKS
GREELEY ARPT   MOCLDY    52  43  71 NE3       29.85F
AKRON          PTCLDY    53  43  68 NW8       29.84S
BURLINGTON     MOCLDY    55  47  74 W6        29.82S
WRAY           MOCLDY    55  48  79 W3        29.80S
STERLING       MOCLDY    63  45  51 NW9       29.81R
HOLYOKE        MOCLDY    55  50  82 CALM      29.80F
FORT MORGAN    PTCLDY    57  38  48 N12       29.85S
$$

COZ086-089-092>099-010700-
...SOUTHEAST COLORADO...

CITY           SKY/WX    TMP DP  RH WIND       PRES   REMARKS
PUEBLO         CLEAR     56  35  45 W9        29.85S
LA JUNTA       CLEAR     57  37  47 W13       29.81S
LAMAR          PTCLDY    54  49  83 CALM      29.77S
SPRINGFIELD      N/A     47  39  74 NW5       29.81R
$$



USA.gov is the U.S. government's official web portal to all federal, state and local government web resources and services.